Three Rivers, MI

11:00 PM EDT on September 18, 2019 (GMT -0400)
Three Rivers Municipal-Haines

Weather History for KHAI - August, 2019

Change the Weather History Date:

Sunday, August 25, 2019

  Actual Average Record
Temperature  
Mean Temperature 64 °F -  
Max Temperature 76 °F 80 °F 98 °F (1948)
Min Temperature 52 °F 56 °F 40 °F (1956)
Degree Days  
Heating Degree Days 1    
Growing Degree Days 14 (Base 50)    
Moisture  
Dew Point 52 °F    
Average Humidity 66    
Maximum Humidity 91    
Minimum Humidity 40    
Precipitation  
Precipitation 0.00 in - - ()
Sea Level Pressure  
Sea Level Pressure 30.16 in    
Wind  
Wind Speed 4 mph (ESE)    
Max Wind Speed 13 mph    
Max Gust Speed 20 mph    
Visibility 10 miles    
Events      
Averages and records for this station are not official NWS values.
T = Trace of Precipitation, MM = Missing Value Source: NWS Daily Summary

Daily Weather History Graph

Daily Weather History Graph

Search for Another Location

Airport or City:

Astronomy

Aug. 25, 2019 Rise Set
Actual Time 7:00 AM EDT 8:27 PM EDT
Civil Twilight 6:31 AM EDT 8:56 PM EDT
Nautical Twilight 5:56 AM EDT 9:31 PM EDT
Astronomical Twilight 5:18 AM EDT 10:09 PM EDT
Moon 1:32 AM EDT (8/25) 4:51 PM EDT (8/25)
Length of Visible Light 14h 25m
Length of Day
13h 27m
Waning Crescent, 29% of the Moon is Illuminated
Aug 25
Waning Crescent
Aug 30
New
Sep 5
First Quarter
Sep 14
Full
Sep 21
Last Quarter

Hourly Weather History & Observations

Time (EDT) Temp. Dew Point Humidity Pressure Visibility Wind Dir Wind Speed Gust Speed Precip Events Conditions
12:15 AM 61.5 °F 51.8 °F 70% 30.25 in 10.0 mi SE 3.5 mph - N/A   Clear
12:35 AM 60.8 °F 51.8 °F 72% 30.25 in 10.0 mi ESE 3.5 mph - N/A   Clear
12:36 AM 60.8 °F 51.8 °F 72% 30.25 in 10.0 mi SE 3.5 mph - N/A   Clear
12:59 AM 60.3 °F 51.4 °F 73% 30.25 in 10.0 mi Calm Calm - N/A   Clear
1:17 AM 57.4 °F 51.1 °F 79% 30.24 in 10.0 mi Calm Calm - N/A   Clear
1:35 AM 56.1 °F 51.4 °F 84% 30.24 in 10.0 mi Calm Calm - N/A   Clear
1:36 AM 55.9 °F 51.4 °F 85% 30.24 in 10.0 mi Calm Calm - N/A   Clear
1:55 AM 56.1 °F 51.6 °F 85% 30.24 in 10.0 mi ENE 3.5 mph - N/A   Clear
1:56 AM 56.3 °F 51.6 °F 84% 30.24 in 10.0 mi Calm Calm - N/A   Clear
2:15 AM 56.3 °F 51.8 °F 85% 30.23 in 10.0 mi Calm Calm - N/A   Clear
2:20 AM 56.1 °F 51.6 °F 85% 30.23 in 10.0 mi Calm Calm - N/A   Clear
2:38 AM 54.7 °F 50.7 °F 86% 30.23 in 10.0 mi Calm Calm - N/A   Clear
2:56 AM 53.8 °F 49.6 °F 86% 30.23 in 10.0 mi Calm Calm - N/A   Clear
3:15 AM 54.3 °F 50.7 °F 88% 30.22 in 10.0 mi Calm Calm - N/A   Clear
3:16 AM 54.3 °F 50.7 °F 88% 30.22 in 10.0 mi Calm Calm - N/A   Clear
3:35 AM 54.5 °F 51.3 °F 89% 30.22 in 10.0 mi Calm Calm - N/A   Clear
3:36 AM 54.5 °F 51.3 °F 89% 30.22 in 10.0 mi Calm Calm - N/A   Clear
3:59 AM 54.5 °F 50.9 °F 88% 30.22 in 10.0 mi ENE 3.5 mph - N/A   Clear
4:17 AM 54.7 °F 51.1 °F 88% 30.21 in 10.0 mi East 3.5 mph - N/A   Clear
4:35 AM 55.2 °F 50.9 °F 85% 30.21 in 10.0 mi East 4.6 mph - N/A   Clear
4:55 AM 54.9 °F 50.9 °F 86% 30.21 in 10.0 mi Calm Calm - N/A   Clear
4:56 AM 54.9 °F 50.9 °F 86% 30.21 in 10.0 mi East 3.5 mph - N/A   Clear
5:15 AM 54.9 °F 51.1 °F 87% 30.21 in 10.0 mi East 4.6 mph - N/A   Clear
5:20 AM 54.9 °F 50.9 °F 86% 30.21 in 10.0 mi East 3.5 mph - N/A   Clear
5:38 AM 54.5 °F 50.9 °F 88% 30.21 in 10.0 mi Calm Calm - N/A   Clear
5:56 AM 54.7 °F 50.9 °F 87% 30.21 in 10.0 mi Calm Calm - N/A   Clear
6:15 AM 53.6 °F 49.6 °F 86% 30.20 in 10.0 mi Calm Calm - N/A   Clear
6:35 AM 53.4 °F 50.2 °F 89% 30.20 in 10.0 mi Calm Calm - N/A   Clear
6:36 AM 53.4 °F 50.0 °F 88% 30.20 in 10.0 mi Calm Calm - N/A   Clear
6:59 AM 52.9 °F 50.0 °F 90% 30.20 in 10.0 mi Calm Calm - N/A   Clear
7:17 AM 52.9 °F 50.2 °F 91% 30.21 in 10.0 mi Calm Calm - N/A   Clear
7:35 AM 53.6 °F 50.9 °F 91% 30.20 in 10.0 mi Calm Calm - N/A   Clear
7:55 AM 55.2 °F 52.5 °F 91% 30.21 in 10.0 mi Calm Calm - N/A   Clear
8:15 AM 57.7 °F 53.8 °F 87% 30.21 in 10.0 mi East 3.5 mph - N/A   Clear
8:20 AM 58.1 °F 54.0 °F 86% 30.21 in 10.0 mi East 5.8 mph - N/A   Clear
8:38 AM 59.0 °F 54.0 °F 83% 30.21 in 10.0 mi East 6.9 mph - N/A   Clear
8:56 AM 60.1 °F 54.3 °F 81% 30.22 in 10.0 mi East 5.8 mph - N/A   Clear
9:15 AM 61.5 °F 54.7 °F 78% 30.21 in 10.0 mi East 6.9 mph - N/A   Clear
9:16 AM 61.5 °F 54.7 °F 78% 30.21 in 10.0 mi ESE 6.9 mph - N/A   Clear
9:35 AM 63.5 °F 55.2 °F 74% 30.21 in 10.0 mi East 8.1 mph - N/A   Clear
9:36 AM 63.7 °F 55.0 °F 73% 30.21 in 10.0 mi East 8.1 mph - N/A   Clear
9:59 AM 64.6 °F 54.7 °F 70% 30.21 in 10.0 mi ESE 6.9 mph - N/A   Clear
10:17 AM 66.0 °F 54.3 °F 66% 30.21 in 10.0 mi East 5.8 mph - N/A   Clear
10:35 AM 67.3 °F 54.0 °F 62% 30.21 in 10.0 mi ESE 4.6 mph - N/A   Clear
10:55 AM 68.4 °F 53.4 °F 59% 30.21 in 10.0 mi East 4.6 mph - N/A   Clear
10:56 AM 68.5 °F 53.6 °F 59% 30.21 in 10.0 mi ESE 4.6 mph - N/A   Clear
11:15 AM 69.6 °F 53.4 °F 56% 30.21 in 10.0 mi East 6.9 mph - N/A   Clear
11:20 AM 69.6 °F 53.2 °F 56% 30.21 in 10.0 mi ESE 5.8 mph - N/A   Clear
11:38 AM 70.5 °F 52.3 °F 52% 30.19 in 10.0 mi ESE 8.1 mph - N/A   Clear
11:56 AM 71.1 °F 51.8 °F 50% 30.19 in 10.0 mi ESE 8.1 mph - N/A   Clear
12:15 PM 72.1 °F 51.4 °F 48% 30.19 in 10.0 mi ESE 10.4 mph - N/A   Clear
12:16 PM 72.1 °F 51.4 °F 48% 30.18 in 10.0 mi ESE 10.4 mph - N/A   Clear
12:35 PM 72.7 °F 49.8 °F 44% 30.18 in 10.0 mi SE 12.7 mph 17.3 mph N/A   Clear
12:59 PM 72.5 °F 49.5 °F 44% 30.16 in 10.0 mi ESE 9.2 mph 18.4 mph N/A   Clear
1:17 PM 72.9 °F 49.5 °F 44% 30.15 in 10.0 mi ESE 11.5 mph - N/A   Clear
1:35 PM 74.1 °F 50.0 °F 43% 30.15 in 10.0 mi ESE 9.2 mph 19.6 mph N/A   Clear
1:36 PM 74.5 °F 50.5 °F 43% 30.15 in 10.0 mi ESE 9.2 mph 19.6 mph N/A   Clear
1:55 PM 74.7 °F 50.4 °F 42% 30.14 in 10.0 mi ESE 9.2 mph - N/A   Clear
1:56 PM 74.8 °F 50.7 °F 43% 30.14 in 10.0 mi ESE 9.2 mph - N/A   Clear
2:15 PM 74.3 °F 50.5 °F 43% 30.14 in 10.0 mi ESE 10.4 mph - N/A   Clear
2:38 PM 74.5 °F 49.8 °F 42% 30.13 in 10.0 mi SSE 10.4 mph - N/A   Clear
2:56 PM 75.2 °F 49.3 °F 40% 30.13 in 10.0 mi SE 9.2 mph 18.4 mph N/A   Clear
3:15 PM 74.1 °F 49.8 °F 42% 30.13 in 10.0 mi ESE 9.2 mph 16.1 mph N/A   Clear
3:35 PM 75.7 °F 50.7 °F 41% 30.12 in 10.0 mi East 12.7 mph 18.4 mph N/A   Clear
3:59 PM 76.1 °F 51.8 °F 43% 30.11 in 10.0 mi ESE 9.2 mph - N/A   Clear
4:17 PM 74.3 °F 49.8 °F 42% 30.10 in 10.0 mi ESE 8.1 mph 17.3 mph N/A   Clear
4:35 PM 75.4 °F 50.7 °F 42% 30.10 in 10.0 mi ESE 11.5 mph 17.3 mph N/A   Clear
4:55 PM 75.2 °F 51.3 °F 43% 30.09 in 10.0 mi ESE 8.1 mph - N/A   Clear
5:15 PM 74.5 °F 51.3 °F 44% 30.08 in 10.0 mi ESE 10.4 mph 17.3 mph N/A   Clear
5:20 PM 74.7 °F 51.1 °F 44% 30.08 in 10.0 mi ESE 10.4 mph - N/A   Clear
5:38 PM 74.7 °F 52.2 °F 45% 30.08 in 10.0 mi SE 12.7 mph 17.3 mph N/A   Clear
5:56 PM 75.2 °F 51.1 °F 43% 30.07 in 10.0 mi SE 12.7 mph 17.3 mph N/A   Clear
6:15 PM 75.4 °F 52.3 °F 44% 30.07 in 10.0 mi ESE 9.2 mph 18.4 mph N/A   Clear
6:35 PM 74.5 °F 52.3 °F 46% 30.07 in 10.0 mi SE 12.7 mph - N/A   Clear
6:36 PM 74.5 °F 52.3 °F 46% 30.07 in 10.0 mi SE 10.4 mph - N/A   Clear
6:59 PM 74.3 °F 52.5 °F 46% 30.06 in 10.0 mi ESE 11.5 mph 18.4 mph N/A   Scattered Clouds
7:17 PM 73.6 °F 52.9 °F 48% 30.06 in 10.0 mi ESE 6.9 mph - N/A   Scattered Clouds
7:35 PM 72.3 °F 53.4 °F 51% 30.06 in 10.0 mi ESE 4.6 mph - N/A   Clear
7:36 PM 72.1 °F 53.6 °F 52% 30.06 in 10.0 mi ESE 4.6 mph - N/A   Clear
7:55 PM 71.1 °F 53.6 °F 54% 30.06 in 10.0 mi ESE 4.6 mph - N/A   Clear
7:56 PM 71.1 °F 53.6 °F 54% 30.06 in 10.0 mi ESE 4.6 mph - N/A   Clear
8:19 PM 69.8 °F 54.1 °F 57% 30.06 in 10.0 mi East 6.9 mph - N/A   Clear
8:37 PM 68.4 °F 54.5 °F 61% 30.07 in 10.0 mi East 6.9 mph - N/A   Clear
8:55 PM 68.0 °F 54.0 °F 61% 30.07 in 10.0 mi East 6.9 mph - N/A   Clear
8:56 PM 67.8 °F 54.0 °F 61% 30.07 in 10.0 mi East 6.9 mph - N/A   Clear
9:15 PM 67.1 °F 53.6 °F 62% 30.07 in 10.0 mi East 6.9 mph - N/A   Clear
9:16 PM 67.1 °F 53.6 °F 62% 30.07 in 10.0 mi East 6.9 mph - N/A   Clear
9:35 PM 66.4 °F 53.8 °F 64% 30.08 in 10.0 mi East 5.8 mph - N/A   Clear
9:58 PM 66.0 °F 53.8 °F 65% 30.07 in 10.0 mi East 6.9 mph - N/A   Clear
10:15 PM 65.7 °F 53.8 °F 65% 30.07 in 10.0 mi East 9.2 mph - N/A   Clear
10:35 PM 65.5 °F 54.0 °F 66% 30.07 in 10.0 mi East 8.1 mph - N/A   Clear
10:36 PM 65.5 °F 54.0 °F 66% 30.07 in 10.0 mi East 9.2 mph - N/A   Clear
10:55 PM 65.1 °F 54.1 °F 68% 30.07 in 10.0 mi ESE 8.1 mph - N/A   Clear
10:56 PM 65.1 °F 54.1 °F 68% 30.07 in 10.0 mi ESE 6.9 mph - N/A   Clear
11:19 PM 64.8 °F 54.5 °F 69% 30.07 in 10.0 mi ESE 5.8 mph - N/A   Clear
11:37 PM 64.6 °F 54.5 °F 70% 30.07 in 10.0 mi ESE 8.1 mph - N/A   Clear
11:55 PM 64.4 °F 54.7 °F 71% 30.06 in 10.0 mi East 8.1 mph - N/A   Clear